238P/Read (2011)

Japanese version
Home page
Updated on August 26, 2014

---------------------------------------------------------------------

* Profile

Designation 238P/2010 N2
Recovery Date July 7, 2010
Magnitude 23.6 mag
Recoverer J. Pittichova (University of Hawaii, Mauna Kea)

* Orbital Elements

Epoch 2011 Mar. 20.0 TT = JDT 2455640.5
T 2011 Mar. 10.67735 TT                                 MPC
q   2.3604259            (2000.0)            P               Q
n   0.17500980     Peri.  325.30765     +0.95646657     -0.29132724
a   3.1653943      Node    51.63920     +0.27251323     +0.87030042
e   0.2543027      Incl.    1.26601     +0.10444252     +0.39712166
P   5.63

* Magnitudes Graph

        m1 = 16.5 + 5 log d + 10.0 log r

        * Gray curve is:  m1 = 14.5 + 5 log d + 10.0 log r

---------------------------------------------------------------------

The orbital elements are published on M.P.E.C. 2010-O44.
The magnitudes graphs are made with Comet for Windows.

---------------------------------------------------------------------

Copyright(C) Seiichi Yoshida (comet@aerith.net). All rights reserved.